#timestamp,LO_Frequency,Hit,StdDev 
1612098015.4,286046996.8,N
1612098035.2,286046999.0,N
1612098055.1,286047001.2,N
1612098056.0,286047001.2,N
1612098075.8,286046995.0,N
1612098095.7,286046995.2,N
1612098115.5,286046995.0,N
1612098135.3,286046995.1,N
1612098155.2,286046995.8,N
1612098175.0,286046996.2,N
1612098175.9,286046996.2,N
1612098195.7,286046995.1,N
1612098215.6,286046997.8,N
1612098235.4,286046995.0,N
1612098255.3,286047004.2,N
1612098275.1,286047001.8,N
1612098295.8,286046998.4,N
1612098315.7,286046999.5,N
1612098335.5,286046999.2,N
1612098355.4,286046999.6,N
1612098375.2,286046997.3,N
1612098395.0,286046996.5,N
1612098395.9,286046996.5,N
1612098415.8,286046996.6,N
1612098435.6,286046996.6,N
1612098455.4,286046997.3,N
1612098475.3,286046997.1,N
1612098495.1,286046998.0,N
1612098515.9,286046997.7,N
1612098535.7,286046997.7,N
1612098555.5,286046995.3,N
1612098575.4,286046996.0,N
1612098595.2,286046995.1,N
1612098615.1,286046997.2,N
1612098616.0,286046997.2,N
1612098635.8,286047004.0,N
1612098655.6,286047007.1,Y
1612098675.5,286047007.4,P
1612098695.3,286047007.4,N
1612098715.1,286047004.6,N
1612098735.9,286047004.9,N
1612098755.7,286047007.1,N
1612098775.6,286047005.1,N
1612098795.4,286047005.7,N
1612098815.2,286047003.3,N
1612098835.1,286047002.5,N
1612098836.0,286047002.5,N
1612098855.8,286046998.1,N
1612098875.7,286046998.2,N
1612098895.5,286046997.1,N
1612098915.3,286046997.7,N
1612098935.2,286046997.8,N
1612098955.0,286046995.2,N
1612098955.9,286046995.2,N
1612098975.7,286046996.3,N
1612098995.6,286046993.6,N
1612099015.4,286046995.9,N
1612099035.3,286046996.0,N
1612099055.1,286046995.8,N
1612099056.0,286046995.8,N
1612099075.8,286046996.1,N
1612099095.7,286046996.1,N
1612099115.5,286046996.4,N
1612099135.4,286046996.2,N
1612099155.2,286046993.3,N
1612099175.0,286046994.1,N
1612099175.9,286046994.1,N
1612099195.8,286046994.4,N
1612099215.6,286046993.8,N
1612099235.4,286046993.9,N
1612099255.3,286046994.3,N
1612099275.1,286046994.6,N
1612099295.9,286046994.7,N
1612099315.7,286046992.3,N
1612099335.5,286046993.2,N
1612099355.4,286046990.4,Y
1612099375.2,286046993.9,P
1612099395.1,286046996.3,P
1612099396.0,286046996.3,P
1612099415.8,286046992.1,Y
1612099435.6,286046997.5,P
1612099455.5,286046997.4,N
1612099475.3,286046997.8,N
1612099495.2,286047011.9,Y
1612099515.9,286046999.9,P
1612099535.7,286047000.2,N
1612099555.6,286047000.9,N
1612099575.4,286046998.8,N
1612099595.2,286046999.4,N
1612099615.1,286046999.6,N
1612099616.0,286046999.6,N
1612099635.8,286047001.1,N
1612099655.7,286046998.6,N
1612099675.5,286046997.5,N
1612099695.3,286046996.0,Y
1612099715.2,286046995.3,P
1612099735.0,286046995.5,N
1612099735.9,286046995.5,N
1612099755.8,286046995.6,N
1612099775.6,286046995.3,Y
1612099795.4,286047000.4,P
1612099815.3,286047000.8,N
1612099835.1,286047000.9,N
1612099855.8,286047001.2,N
1612099875.7,286046998.3,N
1612099895.5,286046996.5,N
1612099915.4,286046999.2,N
1612099935.2,286046998.5,N
1612099955.0,286047000.2,N
1612099955.9,286047000.2,N
1612099975.8,286047000.8,N
1612099995.6,286046999.1,N
1612100015.5,286046998.8,N
1612100035.3,286046996.7,N
1612100055.1,286046996.9,N
1612100075.9,286046999.6,N
1612100095.7,286046999.5,N
1612100115.5,286046996.8,N
1612100135.4,286046995.9,N
1612100155.2,286046996.5,N
1612100175.1,286046998.2,N
1612100176.0,286046998.2,N
1612100195.8,286047000.8,N
1612100215.6,286047000.7,N
1612100235.5,286046998.5,N
1612100255.3,286046997.3,N
1612100275.2,286046996.9,N
1612100295.9,286046997.7,N
1612100315.7,286046996.3,N
1612100335.6,286046993.6,Y
1612100355.4,286046995.7,P
1612100375.3,286046995.8,N
1612100395.1,286046996.0,P
1612100396.0,286046996.0,Y
1612100415.8,286046999.6,P
1612100435.7,286046999.2,N
1612100455.5,286046997.4,N
1612100475.3,286046997.6,N
1612100495.2,286046995.4,Y
1612100515.0,286046999.2,P
1612100515.9,286046999.2,N
1612100535.8,286046998.6,N
1612100555.6,286047001.2,N
1612100575.4,286047002.3,N
1612100595.3,286047007.6,Y
1612100615.1,286047006.2,P
1612100635.9,286047009.1,N
1612100655.7,286047007.8,N
1612100675.5,286047006.7,N
1612100695.4,286047006.0,N
1612100715.2,286047005.5,N
1612100735.1,286047003.6,N
1612100736.0,286047003.6,N
1612100755.8,286047001.5,N
1612100775.6,286046999.4,N
1612100795.5,286046995.7,N
1612100815.3,286047000.7,N
1612100835.1,286046994.9,N
1612100855.9,286046995.6,N
1612100875.7,286046998.3,N
1612100895.6,286046999.5,N
1612100915.4,286046997.4,N
1612100935.2,286046993.9,N
1612100955.1,286046997.1,N
1612100956.0,286046997.1,N
1612100975.8,286046997.7,N
1612100995.7,286046993.7,N
1612101015.5,286046993.5,N
1612101035.3,286046995.9,N
1612101055.2,286046996.0,N
1612101075.0,286046996.4,N
1612101075.9,286046996.4,N
1612101095.7,286046996.2,N
1612101115.6,286046996.4,N
1612101135.4,286046993.3,N
1612101155.3,286046992.9,N
1612101175.1,286046992.2,N
1612101195.8,286046996.4,N
1612101215.7,286046993.7,N
1612101235.5,286046994.6,N
1612101255.4,286046993.0,N
1612101275.2,286046993.4,N
1612101295.0,286046997.6,N
1612101295.9,286046997.6,N
1612101315.8,286046995.6,N
1612101335.6,286046993.6,Y
1612101355.5,286046998.4,P
1612101375.3,286046999.6,N
1612101395.1,286046998.4,N
1612101415.9,286047001.0,N
1612101435.7,286046998.5,N
1612101455.5,286047001.2,N
1612101475.4,286047001.9,N
1612101495.2,286047005.3,N
1612101515.1,286047003.2,N
1612101516.0,286047003.2,N
1612101535.8,286047002.0,N
1612101555.6,286047002.0,N
1612101575.5,286047002.6,N
1612101595.3,286046999.7,N
